Content
SEND FEEDBACK

Daily
Averages
Monthly
Summary
Mexico

CANCUN, QUINTANA ROO


Home > North America > Mexico > Quintana Roo
Elevation: 30 feet     Latitude: 21 09N     Longitude: 086 49W

WEATHER
 
SELECT A DAY
Number of Records: 166,401;   Date Range: 1/1/95 - 10/22/14
 
SHARE

PRINT THIS DATA

[ ← Previous Day ]
WEATHER ALMANAC - JULY 2, 2014
[ Next Day → ]
[ °C ]   °F
Weather ElementAverageHighLow
Temperature81.4 °F89.6 °F (12:46 pm)75.2 °F (2:43 am)
Dewpoint74.1 °F77 °F (9:47 pm)69.8 °F (11:41 am)
Humidity79.9 %100 % (2:43 am)52 % (11:41 am)
Barometer29.98 in30.02 in (10:41 am)29.92 in (4:00 am)
Wind Speed3.9 mph12.7 mph (9:47 pm)
Weather ElementAverage
Visibility7 mi
Wind DirectionENE (56.3 °)

Weather ElementTotal
Precipitation---
Cooling Degree Days17.4 (Base 65)
Growing Degree Days32.4 (Base 50)
Averaged from 24 records on July 2, 2014
WEATHER CONDITIONS BREAKOUT
WIND DIRECTION BREAKOUT
WEATHER BY HOUR - JULY 2, 2014
[ °C ]   °F
Local TimeTemperatureDewpointHumidityBarometerVisibilityWind DirectionWind SpeedGust SpeedPrecipitationEventsConditions
12:45 AM77.0 °F75.2 °F94 %29.95 in7.0 miCalmMostly Cloudy
1:44 AM75.2 °F75.2 °F100 %29.97 in7.0 miCalmMostly Cloudy
2:43 AM75.2 °F73.4 °F94 %29.96 in7.0 miCalmMostly Cloudy
3:48 AM75.2 °F73.4 °F94 %29.92 in7.0 miCalmScattered Clouds
4:47 AM75.2 °F73.4 °F94 %29.94 in7.0 miCalmPartly Cloudy
5:46 AM75.2 °F73.4 °F94 %29.95 in7.0 miCalmScattered Clouds
6:45 AM75.2 °F73.4 °F94 %29.95 in7.0 miCalmScattered Clouds
7:41 AM80.6 °F77.0 °F89 %29.98 in7.0 miCalmScattered Clouds
8:40 AM84.2 °F75.2 °F74 %30.00 in7.0 miEast (90°)6.9 mphMostly Cloudy
9:43 AM86.0 °F75.2 °F70 %29.98 in7.0 miEast (80°)5.8 mphMostly Cloudy
10:45 AM87.8 °F75.2 °F66 %30.01 in7.0 miSSE (150°)2.3 mphMostly Cloudy
11:41 AM89.6 °F69.8 °F52 %30.02 in7.0 miSE (130°)11.5 mphMostly Cloudy
12:41 PM89.6 °F73.4 °F59 %29.99 in7.0 miSE (130°)9.2 mphMostly Cloudy
1:43 PM87.8 °F73.4 °F62 %29.99 in7.0 miESE (120°)11.5 mphMostly Cloudy
2:45 PM87.8 °F73.4 °F62 %29.99 in7.0 miESE (120°)12.7 mphScattered Clouds
3:42 PM87.8 °F73.4 °F62 %29.95 in7.0 miEast (100°)10.4 mphScattered Clouds
4:42 PM84.2 °F75.2 °F74 %29.97 in7.0 miEast (90°)5.8 mphMostly Cloudy
5:43 PM84.2 °F75.2 °F74 %29.97 in7.0 miENE (60°)3.5 mphMostly Cloudy
6:41 PM84.2 °F73.4 °F70 %29.95 in7.0 miESE (120°)5.8 mphMostly Cloudy
7:40 PM82.4 °F75.2 °F79 %29.98 in7.0 miEast (80°)3.5 mphMostly Cloudy
8:42 PM80.6 °F75.2 °F84 %30.00 in7.0 miEast (80°)3.5 mphMostly Cloudy
9:48 PM77.0 °F73.4 °F89 %29.97 in7.0 miCalmScattered Clouds
10:46 PM75.2 °F73.4 °F94 %30.02 in7.0 miCalmScattered Clouds
11:45 PM75.2 °F73.4 °F94 %30.01 in7.0 miCalmScattered Clouds
Hourly data recorded from MMUN, located miles away from Cancun, Quintana Roo







STORIES FROM OUR PARTNERS